Flag for Switzerland Weather past 2 weeks in Buchs, St. Gallen, Switzerland

Now
87 °F

Warm.


Feels Like: 86 °F
Forecast: 72 / 99 °F
Wind: 2 mph from East

Location: Vaduz

Current Time: Jul 4, 2015 at 12:55:25 PM

Latest Report: Jul 4, 2015 at 12:00 PM


Visibility: N/A

Pressure: 30.13 "Hg

Humidity: 41%

Dew point: 60 °F

Location of BuchsLocation

Historic Weather in Buchs — Graph

°F

Buchs temperature yesterday

Maximum temperature yesterday: 92 °F (at 5:00 PM)
Minimum temperature yesterday: 71 °F (at 12:00 AM)
Average temperature yesterday: 82 °F

Past Weeks' High & Low Weather Summary

 TemperatureHumidityPressure
High92 °F (Jul 3, 5:00 PM)98% (Jun 28, 5:00 AM)30.24 "Hg (Jun 28, 5:00 AM)
Low48 °F (Jun 24, 6:00 AM)34% (Jun 30, 3:00 PM)29.73 "Hg (Jun 22, 11:00 PM)
Average67 °F66%30.10 "Hg
* Reported Jun 19 11:00 AM — Jul 4 11:00 AM, Buchs, Weather by CustomWeather, © 2015

Note: Actual official high and low records may vary slightly from our data, if they occured in-between our weather recording intervals... More about our weather records

Advertising

Buchs weather history for previous 24 hours

 ConditionsComfort  
Time TempWeatherWind HumidityBarometerVisibility
11:00 AM
Sat, Jul 4
85 °FSunny.3 mph41%30.14 "Hg11 mi
10:00 AM81 °FWarm.8 mph45%30.16 "HgN/A
9:00 AM78 °FWarm.6 mph49%30.17 "HgN/A
8:00 AM76 °FSunny.7 mph50%30.18 "Hg11 mi
7:00 AM77 °FMild.7 mph45%30.17 "HgN/A
6:00 AM77 °FWarm.6 mph45%30.16 "HgN/A
5:00 AM79 °FClear.6 mph43%30.15 "Hg6 mi
4:00 AM78 °FWarm.5 mph46%30.16 "HgN/A
3:00 AM81 °FWarm.5 mph41%30.15 "HgN/A
2:00 AM83 °FClear.6 mph37%30.14 "Hg9 mi
1:00 AM83 °FPleasantly warm.6 mph38%30.15 "HgN/A
12:00 AM81 °FWarm.3 mph52%30.16 "HgN/A
11:00 PM
Fri, Jul 3
80 °FWarm.5 mph56%30.16 "HgN/A
10:00 PM78 °FWarm.2 mph67%30.16 "HgN/A
9:00 PM85 °FWarm.5 mph46%30.12 "HgN/A
8:00 PM89 °FHot.6 mph46%30.12 "HgN/A
7:00 PM89 °FHot.8 mph46%30.11 "HgN/A
6:00 PM91 °FHot.5 mph45%30.09 "HgN/A
5:00 PM92 °FPassing clouds.7 mph40%30.09 "Hg9 mi
4:00 PM92 °FHot.6 mph44%30.10 "HgN/A
3:00 PM90 °FHot.6 mph45%30.12 "HgN/A
2:00 PM89 °FPassing clouds.6 mph45%30.15 "Hg9 mi
1:00 PM87 °FWarm.5 mph48%30.17 "HgN/A
12:00 PM85 °FWarm.2 mph46%30.19 "HgN/A
Weather by CustomWeather, © 2015

See weather overviewHow to use our weather pages